Precipitable_Water
0.62 0.61 0.60 0.58 0.59 0.59 0.58 0.56 0.55 0.55 0.54 0.54 0.53 0.53 0.54 0.54 0.53 0.53 0.55 0.53 0.51 0.53 0.57 0.54 0.52 0.53 0.51 0.51 0.51 0.49 0.45 0.36 0.27 0.22 0.21 0.33 0.36 0.42 0.41 0.43 0.50 0.57 0.57 0.52 0.41 0.31 0.24 0.27 0.25 0.29 0.29 0.28 0.28 0.27 0.31 0.32 0.32 0.30 0.24 0.22 0.20 0.21 0.21 0.23 0.23 0.24 0.26 0.26 0.27 0.29 0.29 0.29 0.27 0.30 0.41 0.56 0.49 0.52 0.58 0.55 0.65 0.76 0.74 0.78 0.85 0.97 0.99 1.07
0.59 0.58 0.57 0.56 0.55 0.55 0.56 0.55 0.54 0.54 0.53 0.53 0.53 0.52 0.52 0.53 0.53 0.54 0.55 0.53 0.52 0.51 0.52 0.52 0.51 0.51 0.51 0.49 0.51 0.47 0.41 0.33 0.24 0.23 0.33 0.50 0.50 0.48 0.45 0.48 0.54 0.58 0.58 0.46 0.34 0.28 0.24 0.25 0.25 0.26 0.24 0.22 0.29 0.25 0.29 0.28 0.31 0.24 0.23 0.22 0.19 0.21 0.22 0.24 0.25 0.26 0.26 0.25 0.27 0.29 0.29 0.29 0.28 0.30 0.43 0.32 0.39 0.43 0.44 0.52 0.59 0.59 0.70 0.81 0.87 0.96 0.97 1.04
0.58 0.57 0.56 0.55 0.54 0.53 0.53 0.55 0.54 0.52 0.52 0.53 0.53 0.52 0.52 0.53 0.54 0.54 0.52 0.52 0.52 0.51 0.49 0.49 0.50 0.51 0.49 0.50 0.48 0.44 0.38 0.26 0.23 0.28 0.45 0.56 0.50 0.41 0.41 0.42 0.49 0.53 0.52 0.38 0.37 0.30 0.27 0.29 0.28 0.26 0.23 0.19 0.22 0.21 0.25 0.25 0.27 0.25 0.22 0.19 0.20 0.22 0.23 0.24 0.25 0.25 0.26 0.27 0.26 0.27 0.28 0.28 0.28 0.28 0.38 0.27 0.33 0.43 0.34 0.35 0.47 0.50 0.54 0.68 0.80 0.91 0.97 1.02
0.58 0.58 0.57 0.56 0.54 0.53 0.54 0.54 0.54 0.54 0.53 0.53 0.52 0.52 0.53 0.53 0.53 0.52 0.52 0.51 0.53 0.50 0.47 0.48 0.49 0.50 0.49 0.49 0.47 0.43 0.31 0.23 0.15 0.32 0.48 0.55 0.45 0.42 0.39 0.40 0.51 0.54 0.57 0.48 0.40 0.31 0.33 0.35 0.30 0.27 0.23 0.19 0.20 0.21 0.19 0.24 0.22 0.24 0.21 0.18 0.20 0.23 0.22 0.23 0.24 0.25 0.25 0.26 0.26 0.26 0.27 0.26 0.27 0.27 0.28 0.30 0.33 0.35 0.37 0.42 0.34 0.36 0.49 0.66 0.80 0.88 0.97 1.00
0.57 0.58 0.58 0.57 0.56 0.55 0.55 0.56 0.55 0.55 0.55 0.55 0.54 0.53 0.53 0.53 0.53 0.52 0.52 0.51 0.51 0.51 0.49 0.48 0.47 0.48 0.48 0.49 0.43 0.39 0.27 0.13 0.21 0.47 0.58 0.62 0.54 0.48 0.43 0.40 0.49 0.57 0.56 0.50 0.41 0.37 0.34 0.32 0.29 0.26 0.23 0.18 0.20 0.19 0.18 0.20 0.23 0.23 0.20 0.20 0.21 0.22 0.21 0.23 0.24 0.25 0.25 0.25 0.25 0.25 0.24 0.24 0.33 0.34 0.30 0.32 0.24 0.26 0.31 0.38 0.48 0.48 0.54 0.65 0.78 0.89 0.97 0.99
0.59 0.59 0.60 0.60 0.59 0.59 0.57 0.56 0.56 0.55 0.55 0.55 0.54 0.53 0.53 0.53 0.53 0.53 0.52 0.51 0.50 0.50 0.49 0.48 0.47 0.47 0.47 0.46 0.41 0.34 0.20 0.09 0.40 0.41 0.53 0.59 0.50 0.47 0.45 0.45 0.42 0.56 0.53 0.43 0.36 0.33 0.31 0.29 0.27 0.22 0.21 0.20 0.18 0.16 0.18 0.19 0.22 0.15 0.20 0.21 0.21 0.21 0.20 0.23 0.23 0.24 0.24 0.23 0.23 0.22 0.24 0.25 0.27 0.31 0.35 0.31 0.26 0.30 0.43 0.51 0.55 0.58 0.64 0.76 0.91 0.94 0.91 0.93
0.60 0.60 0.60 0.61 0.61 0.60 0.60 0.59 0.58 0.56 0.56 0.55 0.56 0.55 0.54 0.53 0.53 0.52 0.52 0.51 0.52 0.51 0.50 0.48 0.47 0.45 0.47 0.45 0.39 0.29 0.18 0.15 0.20 0.34 0.41 0.46 0.43 0.43 0.41 0.40 0.45 0.41 0.48 0.38 0.34 0.30 0.31 0.28 0.25 0.21 0.20 0.20 0.20 0.18 0.19 0.19 0.21 0.17 0.15 0.19 0.20 0.22 0.20 0.21 0.21 0.23 0.23 0.22 0.22 0.23 0.24 0.23 0.23 0.22 0.45 0.33 0.37 0.46 0.54 0.59 0.63 0.69 0.77 0.85 0.84 0.88 0.88 0.87
0.61 0.60 0.60 0.60 0.58 0.58 0.57 0.59 0.58 0.58 0.58 0.58 0.58 0.58 0.57 0.55 0.53 0.51 0.50 0.51 0.51 0.51 0.50 0.51 0.48 0.46 0.47 0.37 0.25 0.19 0.18 0.15 0.23 0.29 0.35 0.34 0.34 0.38 0.38 0.35 0.41 0.41 0.40 0.35 0.33 0.32 0.32 0.27 0.24 0.24 0.20 0.17 0.20 0.19 0.21 0.19 0.20 0.17 0.15 0.18 0.20 0.21 0.21 0.21 0.21 0.21 0.22 0.23 0.24 0.23 0.21 0.21 0.22 0.22 0.36 0.34 0.41 0.50 0.55 0.59 0.62 0.70 0.80 0.85 0.85 0.83 0.85 0.86
0.62 0.62 0.60 0.60 0.58 0.56 0.57 0.57 0.58 0.58 0.59 0.59 0.59 0.59 0.58 0.56 0.54 0.53 0.53 0.52 0.51 0.50 0.50 0.50 0.50 0.46 0.48 0.37 0.25 0.15 0.13 0.24 0.31 0.36 0.37 0.33 0.31 0.33 0.35 0.31 0.38 0.38 0.35 0.36 0.39 0.38 0.34 0.29 0.29 0.26 0.19 0.19 0.22 0.20 0.21 0.18 0.15 0.18 0.18 0.19 0.20 0.19 0.20 0.20 0.19 0.19 0.20 0.21 0.22 0.21 0.21 0.22 0.23 0.28 0.24 0.31 0.39 0.50 0.58 0.57 0.59 0.66 0.76 0.81 0.79 0.81 0.83 0.82
0.63 0.63 0.63 0.62 0.58 0.58 0.60 0.60 0.59 0.59 0.59 0.59 0.59 0.59 0.57 0.57 0.56 0.56 0.56 0.55 0.54 0.51 0.50 0.50 0.49 0.49 0.41 0.31 0.26 0.13 0.20 0.29 0.29 0.30 0.30 0.32 0.30 0.30 0.32 0.32 0.34 0.36 0.33 0.33 0.37 0.38 0.35 0.34 0.32 0.33 0.28 0.23 0.24 0.20 0.22 0.19 0.16 0.20 0.18 0.19 0.19 0.21 0.21 0.20 0.17 0.17 0.19 0.19 0.20 0.19 0.19 0.20 0.22 0.22 0.18 0.37 0.45 0.49 0.50 0.49 0.57 0.61 0.68 0.77 0.77 0.78 0.83 0.83
0.63 0.63 0.63 0.62 0.58 0.60 0.63 0.63 0.63 0.63 0.61 0.61 0.61 0.61 0.59 0.58 0.57 0.57 0.57 0.54 0.53 0.52 0.48 0.49 0.52 0.47 0.35 0.33 0.18 0.11 0.29 0.27 0.29 0.29 0.28 0.28 0.28 0.26 0.29 0.31 0.34 0.33 0.33 0.33 0.35 0.40 0.42 0.41 0.40 0.37 0.30 0.23 0.23 0.21 0.22 0.21 0.22 0.21 0.22 0.19 0.19 0.20 0.22 0.22 0.19 0.17 0.18 0.17 0.19 0.19 0.18 0.20 0.22 0.21 0.17 0.30 0.47 0.50 0.41 0.43 0.48 0.58 0.69 0.76 0.77 0.77 0.82 0.84
0.63 0.64 0.63 0.63 0.60 0.63 0.65 0.65 0.65 0.66 0.67 0.66 0.66 0.65 0.64 0.60 0.57 0.56 0.54 0.54 0.53 0.51 0.50 0.49 0.52 0.46 0.36 0.29 0.21 0.16 0.31 0.28 0.29 0.29 0.27 0.26 0.24 0.27 0.30 0.32 0.32 0.32 0.32 0.29 0.32 0.38 0.43 0.44 0.44 0.36 0.24 0.30 0.21 0.22 0.21 0.26 0.23 0.21 0.21 0.17 0.18 0.18 0.17 0.19 0.19 0.19 0.18 0.16 0.18 0.19 0.17 0.15 0.19 0.19 0.21 0.35 0.46 0.50 0.45 0.42 0.46 0.55 0.69 0.76 0.77 0.80 0.80 0.83
0.64 0.65 0.66 0.66 0.65 0.67 0.69 0.69 0.69 0.69 0.70 0.69 0.68 0.68 0.65 0.61 0.55 0.52 0.52 0.51 0.51 0.49 0.49 0.50 0.51 0.46 0.32 0.17 0.20 0.30 0.33 0.32 0.30 0.30 0.28 0.30 0.27 0.29 0.30 0.31 0.32 0.35 0.35 0.31 0.33 0.43 0.45 0.44 0.44 0.35 0.35 0.29 0.24 0.19 0.24 0.26 0.24 0.23 0.20 0.18 0.17 0.17 0.15 0.17 0.20 0.21 0.18 0.18 0.18 0.17 0.09 0.10 0.14 0.20 0.24 0.43 0.43 0.49 0.46 0.44 0.48 0.58 0.70 0.72 0.73 0.76 0.80 0.86
0.67 0.68 0.68 0.69 0.69 0.69 0.69 0.71 0.72 0.72 0.73 0.72 0.70 0.68 0.64 0.59 0.55 0.52 0.51 0.48 0.48 0.48 0.48 0.52 0.51 0.41 0.30 0.17 0.24 0.29 0.33 0.35 0.35 0.29 0.27 0.31 0.26 0.24 0.27 0.31 0.33 0.36 0.38 0.35 0.37 0.40 0.43 0.45 0.44 0.41 0.42 0.31 0.25 0.33 0.26 0.24 0.23 0.19 0.20 0.19 0.14 0.13 0.13 0.18 0.17 0.19 0.18 0.21 0.19 0.17 0.09 0.09 0.11 0.17 0.29 0.44 0.47 0.42 0.38 0.41 0.48 0.58 0.67 0.70 0.71 0.75 0.77 0.83
0.67 0.68 0.68 0.69 0.69 0.70 0.72 0.73 0.72 0.73 0.74 0.74 0.71 0.68 0.63 0.56 0.52 0.51 0.49 0.47 0.47 0.48 0.47 0.51 0.47 0.34 0.22 0.20 0.31 0.32 0.37 0.38 0.29 0.27 0.30 0.28 0.25 0.21 0.23 0.27 0.29 0.35 0.38 0.36 0.38 0.42 0.45 0.45 0.42 0.36 0.33 0.39 0.35 0.28 0.23 0.22 0.21 0.21 0.17 0.13 0.14 0.12 0.14 0.16 0.18 0.17 0.15 0.20 0.21 0.17 0.10 0.10 0.12 0.15 0.30 0.43 0.49 0.44 0.36 0.41 0.48 0.57 0.65 0.68 0.70 0.72 0.76 0.80
0.67 0.67 0.68 0.69 0.69 0.69 0.72 0.72 0.72 0.72 0.73 0.73 0.71 0.67 0.61 0.54 0.51 0.51 0.48 0.47 0.48 0.47 0.50 0.40 0.38 0.31 0.20 0.14 0.22 0.37 0.29 0.20 0.21 0.29 0.32 0.32 0.29 0.22 0.24 0.24 0.27 0.31 0.36 0.36 0.42 0.43 0.44 0.42 0.34 0.34 0.33 0.35 0.30 0.26 0.22 0.21 0.20 0.20 0.15 0.13 0.13 0.12 0.13 0.13 0.17 0.18 0.17 0.18 0.21 0.17 0.11 0.12 0.11 0.18 0.35 0.47 0.47 0.47 0.40 0.41 0.47 0.54 0.62 0.65 0.67 0.70 0.74 0.80
0.67 0.67 0.68 0.69 0.69 0.70 0.71 0.72 0.72 0.72 0.73 0.73 0.69 0.65 0.59 0.52 0.52 0.51 0.50 0.48 0.49 0.52 0.46 0.33 0.36 0.38 0.15 0.29 0.36 0.24 0.22 0.25 0.30 0.28 0.29 0.33 0.30 0.27 0.25 0.24 0.23 0.26 0.34 0.37 0.41 0.41 0.41 0.36 0.38 0.33 0.35 0.29 0.29 0.26 0.20 0.18 0.17 0.17 0.17 0.14 0.14 0.12 0.13 0.11 0.16 0.18 0.19 0.16 0.16 0.19 0.14 0.14 0.18 0.20 0.35 0.49 0.49 0.47 0.42 0.42 0.46 0.51 0.59 0.62 0.66 0.70 0.73 0.75
0.66 0.66 0.67 0.69 0.70 0.69 0.71 0.72 0.72 0.72 0.73 0.73 0.68 0.61 0.53 0.51 0.54 0.53 0.51 0.51 0.53 0.48 0.47 0.47 0.40 0.28 0.19 0.29 0.18 0.20 0.28 0.23 0.23 0.28 0.30 0.31 0.31 0.30 0.29 0.24 0.27 0.26 0.30 0.31 0.39 0.34 0.37 0.32 0.34 0.25 0.27 0.27 0.26 0.24 0.17 0.13 0.14 0.15 0.15 0.14 0.13 0.15 0.14 0.12 0.12 0.15 0.18 0.17 0.15 0.16 0.16 0.15 0.23 0.29 0.34 0.40 0.49 0.47 0.41 0.41 0.45 0.50 0.55 0.61 0.64 0.67 0.70 0.72
0.66 0.66 0.67 0.69 0.70 0.70 0.72 0.72 0.72 0.73 0.73 0.73 0.68 0.63 0.54 0.54 0.55 0.55 0.47 0.47 0.36 0.29 0.21 0.25 0.24 0.13 0.09 0.16 0.24 0.25 0.26 0.30 0.34 0.32 0.27 0.28 0.32 0.33 0.31 0.31 0.29 0.25 0.22 0.25 0.29 0.31 0.34 0.32 0.32 0.26 0.21 0.21 0.21 0.21 0.19 0.19 0.19 0.18 0.18 0.16 0.15 0.13 0.13 0.12 0.13 0.16 0.17 0.15 0.14 0.14 0.14 0.14 0.22 0.29 0.37 0.46 0.50 0.44 0.43 0.47 0.51 0.55 0.58 0.62 0.64 0.67 0.68 0.69
0.66 0.66 0.66 0.69 0.70 0.72 0.73 0.73 0.73 0.74 0.74 0.69 0.63 0.54 0.45 0.38 0.37 0.34 0.46 0.45 0.35 0.30 0.26 0.26 0.29 0.24 0.25 0.24 0.24 0.31 0.37 0.37 0.27 0.29 0.31 0.33 0.30 0.30 0.27 0.28 0.27 0.27 0.22 0.19 0.25 0.30 0.32 0.24 0.22 0.20 0.20 0.21 0.22 0.23 0.24 0.22 0.22 0.21 0.20 0.18 0.16 0.15 0.14 0.15 0.15 0.15 0.18 0.16 0.14 0.14 0.14 0.14 0.18 0.26 0.34 0.43 0.51 0.49 0.50 0.50 0.51 0.55 0.58 0.61 0.63 0.64 0.65 0.68
0.66 0.65 0.66 0.68 0.71 0.72 0.73 0.74 0.75 0.74 0.75 0.69 0.62 0.47 0.33 0.36 0.30 0.28 0.37 0.38 0.39 0.37 0.33 0.29 0.29 0.27 0.24 0.27 0.31 0.31 0.27 0.28 0.32 0.28 0.30 0.37 0.29 0.25 0.23 0.25 0.22 0.18 0.20 0.22 0.25 0.33 0.32 0.23 0.22 0.23 0.24 0.24 0.23 0.24 0.24 0.23 0.22 0.20 0.19 0.18 0.16 0.15 0.14 0.15 0.14 0.16 0.18 0.15 0.14 0.16 0.15 0.14 0.18 0.26 0.31 0.44 0.48 0.44 0.46 0.47 0.49 0.51 0.56 0.60 0.62 0.62 0.62 0.68
0.65 0.66 0.66 0.68 0.70 0.73 0.74 0.75 0.76 0.76 0.74 0.70 0.60 0.46 0.45 0.47 0.52 0.55 0.47 0.30 0.37 0.38 0.36 0.32 0.35 0.31 0.34 0.36 0.39 0.41 0.39 0.29 0.24 0.26 0.32 0.31 0.25 0.18 0.23 0.21 0.20 0.15 0.20 0.25 0.28 0.27 0.24 0.20 0.22 0.27 0.28 0.26 0.25 0.24 0.24 0.23 0.22 0.21 0.19 0.18 0.16 0.16 0.16 0.17 0.16 0.16 0.16 0.15 0.14 0.15 0.14 0.14 0.18 0.25 0.30 0.35 0.39 0.42 0.46 0.46 0.45 0.47 0.53 0.59 0.62 0.61 0.63 0.69
0.66 0.66 0.65 0.66 0.69 0.73 0.74 0.76 0.76 0.75 0.70 0.63 0.53 0.49 0.48 0.58 0.64 0.66 0.58 0.42 0.32 0.38 0.35 0.34 0.32 0.31 0.32 0.40 0.41 0.44 0.30 0.25 0.20 0.23 0.26 0.28 0.23 0.18 0.22 0.20 0.19 0.20 0.21 0.24 0.22 0.21 0.19 0.20 0.27 0.30 0.30 0.26 0.24 0.24 0.22 0.22 0.22 0.21 0.19 0.18 0.15 0.16 0.15 0.13 0.15 0.16 0.16 0.15 0.14 0.15 0.14 0.15 0.22 0.31 0.31 0.36 0.39 0.40 0.47 0.52 0.54 0.57 0.57 0.57 0.57 0.59 0.61 0.64
0.65 0.64 0.66 0.68 0.70 0.73 0.76 0.76 0.76 0.72 0.67 0.63 0.56 0.53 0.60 0.65 0.67 0.64 0.50 0.32 0.26 0.30 0.34 0.36 0.35 0.34 0.33 0.31 0.41 0.36 0.29 0.27 0.27 0.21 0.31 0.27 0.20 0.22 0.22 0.21 0.20 0.21 0.20 0.22 0.23 0.20 0.18 0.23 0.29 0.30 0.30 0.27 0.23 0.23 0.21 0.20 0.19 0.21 0.20 0.19 0.17 0.16 0.15 0.15 0.14 0.16 0.18 0.20 0.18 0.15 0.14 0.17 0.22 0.24 0.30 0.39 0.49 0.50 0.52 0.57 0.63 0.65 0.68 0.72 0.73 0.73 0.72 0.67
0.65 0.64 0.65 0.68 0.70 0.74 0.75 0.76 0.67 0.65 0.69 0.64 0.57 0.62 0.66 0.69 0.68 0.65 0.44 0.33 0.30 0.27 0.39 0.35 0.38 0.36 0.37 0.50 0.47 0.33 0.32 0.31 0.27 0.28 0.35 0.29 0.25 0.23 0.20 0.27 0.25 0.21 0.20 0.22 0.23 0.24 0.23 0.27 0.29 0.28 0.30 0.28 0.25 0.22 0.21 0.20 0.17 0.19 0.21 0.20 0.19 0.19 0.17 0.16 0.17 0.16 0.14 0.15 0.18 0.14 0.12 0.12 0.21 0.24 0.25 0.32 0.41 0.44 0.54 0.55 0.56 0.60 0.65 0.68 0.65 0.64 0.71 0.75
0.64 0.64 0.65 0.68 0.71 0.73 0.77 0.64 0.64 0.69 0.64 0.56 0.62 0.69 0.71 0.70 0.69 0.65 0.43 0.26 0.17 0.23 0.30 0.23 0.40 0.29 0.44 0.35 0.40 0.35 0.34 0.21 0.29 0.30 0.33 0.33 0.36 0.28 0.29 0.27 0.27 0.19 0.21 0.22 0.23 0.26 0.26 0.29 0.28 0.26 0.28 0.27 0.25 0.22 0.22 0.21 0.17 0.17 0.18 0.22 0.21 0.20 0.18 0.17 0.16 0.15 0.13 0.11 0.17 0.17 0.10 0.09 0.23 0.22 0.28 0.32 0.36 0.38 0.50 0.51 0.56 0.60 0.64 0.64 0.62 0.65 0.66 0.70
0.64 0.64 0.65 0.68 0.72 0.75 0.64 0.54 0.72 0.71 0.56 0.57 0.69 0.72 0.71 0.67 0.71 0.59 0.35 0.20 0.15 0.27 0.22 0.30 0.31 0.32 0.38 0.37 0.37 0.38 0.17 0.19 0.30 0.33 0.31 0.37 0.30 0.38 0.27 0.26 0.28 0.27 0.27 0.26 0.25 0.23 0.29 0.29 0.28 0.29 0.28 0.27 0.24 0.21 0.23 0.21 0.18 0.16 0.22 0.22 0.22 0.20 0.18 0.17 0.16 0.15 0.14 0.17 0.21 0.18 0.15 0.13 0.13 0.21 0.30 0.33 0.32 0.36 0.42 0.46 0.52 0.60 0.61 0.59 0.61 0.65 0.67 0.71
0.63 0.64 0.65 0.69 0.73 0.76 0.68 0.71 0.68 0.61 0.59 0.64 0.69 0.70 0.71 0.68 0.66 0.59 0.30 0.13 0.12 0.33 0.25 0.30 0.33 0.42 0.38 0.40 0.40 0.28 0.26 0.30 0.22 0.33 0.38 0.40 0.36 0.33 0.28 0.30 0.26 0.23 0.26 0.24 0.15 0.23 0.28 0.27 0.27 0.26 0.27 0.26 0.23 0.23 0.24 0.23 0.18 0.18 0.21 0.24 0.22 0.21 0.19 0.18 0.17 0.15 0.15 0.14 0.14 0.17 0.19 0.11 0.14 0.25 0.32 0.35 0.28 0.31 0.36 0.42 0.46 0.51 0.55 0.57 0.59 0.63 0.67 0.73
0.62 0.62 0.65 0.69 0.74 0.78 0.79 0.72 0.68 0.59 0.68 0.71 0.71 0.69 0.70 0.69 0.55 0.35 0.21 0.13 0.27 0.26 0.45 0.29 0.49 0.38 0.38 0.39 0.33 0.33 0.29 0.31 0.21 0.31 0.42 0.42 0.42 0.38 0.25 0.30 0.34 0.28 0.26 0.23 0.18 0.25 0.30 0.31 0.30 0.30 0.28 0.25 0.27 0.27 0.26 0.24 0.19 0.20 0.22 0.25 0.24 0.23 0.21 0.19 0.17 0.16 0.15 0.13 0.11 0.15 0.19 0.10 0.15 0.25 0.28 0.34 0.28 0.26 0.31 0.38 0.42 0.45 0.48 0.52 0.55 0.61 0.68 0.74
0.61 0.62 0.65 0.70 0.75 0.75 0.75 0.77 0.68 0.73 0.72 0.72 0.70 0.69 0.67 0.59 0.43 0.23 0.17 0.11 0.33 0.20 0.33 0.35 0.33 0.30 0.36 0.31 0.30 0.32 0.27 0.29 0.29 0.32 0.38 0.35 0.38 0.41 0.39 0.43 0.34 0.29 0.23 0.24 0.24 0.28 0.30 0.36 0.37 0.32 0.29 0.31 0.30 0.29 0.27 0.25 0.22 0.22 0.22 0.23 0.22 0.22 0.21 0.20 0.19 0.17 0.15 0.11 0.11 0.18 0.19 0.13 0.10 0.18 0.25 0.26 0.25 0.27 0.29 0.35 0.41 0.44 0.46 0.51 0.55 0.61 0.65 0.69
0.60 0.62 0.66 0.73 0.68 0.73 0.73 0.62 0.68 0.73 0.72 0.71 0.70 0.65 0.56 0.44 0.25 0.18 0.12 0.18 0.28 0.28 0.35 0.34 0.30 0.38 0.32 0.29 0.25 0.32 0.29 0.28 0.27 0.29 0.27 0.35 0.34 0.38 0.37 0.33 0.36 0.29 0.24 0.23 0.22 0.27 0.27 0.31 0.33 0.33 0.36 0.36 0.34 0.28 0.28 0.27 0.24 0.21 0.20 0.21 0.21 0.20 0.20 0.18 0.17 0.17 0.12 0.09 0.12 0.16 0.19 0.16 0.09 0.14 0.25 0.34 0.37 0.33 0.31 0.28 0.31 0.35 0.37 0.42 0.49 0.56 0.63 0.69
0.60 0.63 0.69 0.73 0.77 0.81 0.64 0.58 0.68 0.74 0.70 0.71 0.65 0.52 0.42 0.22 0.26 0.16 0.15 0.37 0.19 0.25 0.26 0.28 0.34 0.33 0.31 0.36 0.32 0.29 0.25 0.27 0.26 0.27 0.26 0.30 0.30 0.28 0.30 0.24 0.25 0.20 0.18 0.19 0.17 0.25 0.23 0.26 0.31 0.33 0.37 0.35 0.31 0.28 0.26 0.26 0.23 0.20 0.19 0.21 0.18 0.16 0.15 0.13 0.14 0.11 0.10 0.10 0.13 0.15 0.20 0.17 0.12 0.19 0.20 0.30 0.34 0.35 0.33 0.29 0.28 0.30 0.34 0.40 0.47 0.54 0.61 0.69
0.60 0.65 0.72 0.76 0.79 0.74 0.75 0.76 0.76 0.72 0.70 0.67 0.56 0.47 0.29 0.20 0.13 0.20 0.21 0.26 0.21 0.30 0.27 0.35 0.31 0.33 0.33 0.32 0.28 0.30 0.31 0.20 0.27 0.27 0.30 0.30 0.32 0.29 0.32 0.30 0.28 0.22 0.14 0.20 0.17 0.20 0.21 0.26 0.29 0.31 0.35 0.36 0.34 0.25 0.22 0.21 0.21 0.19 0.18 0.18 0.17 0.14 0.12 0.10 0.11 0.12 0.12 0.13 0.16 0.14 0.21 0.14 0.20 0.18 0.23 0.25 0.29 0.34 0.34 0.33 0.33 0.31 0.33 0.40 0.45 0.53 0.61 0.66
0.61 0.67 0.68 0.77 0.78 0.78 0.79 0.79 0.76 0.74 0.66 0.62 0.48 0.36 0.28 0.18 0.16 0.27 0.24 0.27 0.26 0.35 0.33 0.31 0.32 0.32 0.32 0.26 0.28 0.32 0.23 0.26 0.24 0.26 0.28 0.27 0.30 0.26 0.28 0.30 0.29 0.22 0.20 0.18 0.16 0.18 0.16 0.17 0.24 0.28 0.27 0.35 0.32 0.28 0.23 0.20 0.19 0.18 0.19 0.19 0.17 0.15 0.12 0.09 0.11 0.09 0.10 0.11 0.13 0.20 0.15 0.13 0.11 0.14 0.21 0.24 0.30 0.34 0.37 0.35 0.36 0.41 0.47 0.49 0.52 0.58 0.63 0.66
0.63 0.68 0.74 0.80 0.80 0.80 0.79 0.79 0.76 0.74 0.65 0.53 0.39 0.29 0.19 0.18 0.22 0.21 0.24 0.27 0.31 0.34 0.30 0.38 0.31 0.28 0.26 0.28 0.32 0.34 0.29 0.21 0.26 0.24 0.26 0.26 0.25 0.25 0.25 0.26 0.27 0.26 0.22 0.16 0.19 0.19 0.18 0.17 0.24 0.30 0.31 0.34 0.30 0.32 0.28 0.23 0.21 0.20 0.21 0.22 0.19 0.18 0.19 0.13 0.14 0.13 0.13 0.13 0.12 0.16 0.14 0.15 0.14 0.24 0.26 0.29 0.32 0.35 0.41 0.42 0.42 0.42 0.48 0.51 0.51 0.55 0.59 0.64
0.61 0.64 0.76 0.74 0.76 0.77 0.80 0.78 0.77 0.72 0.59 0.45 0.32 0.24 0.21 0.24 0.21 0.29 0.26 0.35 0.36 0.31 0.31 0.33 0.31 0.26 0.24 0.26 0.32 0.30 0.36 0.23 0.26 0.23 0.24 0.27 0.29 0.26 0.30 0.28 0.25 0.25 0.20 0.15 0.19 0.17 0.19 0.18 0.25 0.29 0.32 0.33 0.32 0.33 0.28 0.25 0.16 0.19 0.19 0.16 0.18 0.23 0.21 0.16 0.16 0.17 0.16 0.13 0.11 0.18 0.14 0.18 0.24 0.25 0.29 0.26 0.26 0.29 0.34 0.38 0.43 0.45 0.47 0.49 0.50 0.54 0.59 0.65
0.54 0.64 0.63 0.73 0.75 0.82 0.81 0.79 0.75 0.66 0.55 0.41 0.29 0.23 0.28 0.30 0.32 0.31 0.34 0.32 0.35 0.36 0.32 0.21 0.24 0.24 0.22 0.22 0.25 0.28 0.30 0.25 0.25 0.22 0.18 0.27 0.25 0.28 0.25 0.27 0.29 0.25 0.24 0.21 0.17 0.24 0.17 0.19 0.26 0.26 0.26 0.33 0.36 0.34 0.31 0.26 0.25 0.20 0.15 0.18 0.22 0.25 0.22 0.18 0.13 0.14 0.13 0.10 0.11 0.16 0.12 0.15 0.15 0.14 0.30 0.25 0.23 0.26 0.29 0.32 0.36 0.42 0.45 0.45 0.48 0.54 0.60 0.65
0.52 0.58 0.66 0.70 0.77 0.85 0.84 0.80 0.72 0.61 0.48 0.37 0.27 0.29 0.36 0.30 0.38 0.35 0.38 0.38 0.37 0.37 0.30 0.26 0.26 0.30 0.24 0.24 0.24 0.27 0.30 0.21 0.21 0.21 0.19 0.24 0.23 0.32 0.25 0.25 0.27 0.26 0.26 0.25 0.21 0.21 0.25 0.19 0.23 0.27 0.27 0.30 0.34 0.33 0.29 0.28 0.26 0.20 0.18 0.23 0.17 0.16 0.16 0.18 0.17 0.11 0.10 0.10 0.11 0.13 0.14 0.16 0.15 0.16 0.24 0.22 0.20 0.22 0.26 0.30 0.34 0.37 0.41 0.41 0.46 0.54 0.62 0.68
0.53 0.54 0.51 0.68 0.85 0.85 0.83 0.80 0.68 0.54 0.41 0.31 0.29 0.27 0.34 0.36 0.40 0.38 0.40 0.41 0.41 0.36 0.29 0.29 0.25 0.30 0.29 0.25 0.27 0.29 0.28 0.18 0.21 0.19 0.18 0.22 0.21 0.28 0.25 0.26 0.24 0.28 0.26 0.26 0.22 0.23 0.25 0.19 0.21 0.28 0.27 0.29 0.30 0.29 0.22 0.23 0.25 0.25 0.23 0.20 0.22 0.20 0.18 0.16 0.16 0.18 0.14 0.10 0.10 0.11 0.14 0.11 0.17 0.15 0.21 0.21 0.21 0.20 0.23 0.28 0.29 0.31 0.33 0.36 0.44 0.52 0.57 0.62
0.46 0.44 0.45 0.74 0.86 0.86 0.84 0.75 0.58 0.48 0.37 0.27 0.30 0.32 0.39 0.35 0.39 0.43 0.44 0.43 0.38 0.37 0.32 0.30 0.32 0.27 0.30 0.29 0.28 0.25 0.27 0.23 0.20 0.19 0.20 0.23 0.24 0.28 0.27 0.27 0.25 0.25 0.27 0.26 0.25 0.27 0.22 0.28 0.18 0.24 0.28 0.28 0.23 0.26 0.23 0.23 0.20 0.20 0.19 0.17 0.18 0.19 0.22 0.20 0.20 0.17 0.15 0.13 0.10 0.12 0.11 0.13 0.18 0.20 0.20 0.20 0.21 0.21 0.23 0.23 0.27 0.29 0.31 0.37 0.43 0.50 0.56 0.60
0.50 0.41 0.45 0.78 0.85 0.85 0.78 0.62 0.46 0.37 0.34 0.37 0.39 0.36 0.39 0.36 0.42 0.41 0.46 0.48 0.44 0.49 0.39 0.34 0.31 0.27 0.28 0.27 0.26 0.30 0.23 0.22 0.21 0.18 0.20 0.21 0.24 0.19 0.27 0.26 0.27 0.25 0.27 0.26 0.24 0.26 0.23 0.24 0.21 0.22 0.22 0.22 0.23 0.26 0.27 0.25 0.23 0.21 0.19 0.18 0.17 0.16 0.16 0.14 0.13 0.19 0.17 0.15 0.12 0.10 0.10 0.17 0.20 0.21 0.19 0.20 0.22 0.22 0.25 0.25 0.25 0.27 0.31 0.39 0.47 0.55 0.59 0.61
0.40 0.30 0.40 0.76 0.85 0.80 0.63 0.44 0.42 0.45 0.39 0.34 0.33 0.39 0.37 0.46 0.43 0.43 0.45 0.48 0.46 0.41 0.48 0.38 0.34 0.31 0.29 0.27 0.26 0.25 0.22 0.20 0.21 0.19 0.20 0.21 0.26 0.24 0.25 0.28 0.27 0.28 0.23 0.21 0.23 0.28 0.28 0.26 0.24 0.20 0.21 0.22 0.25 0.27 0.28 0.28 0.26 0.23 0.22 0.19 0.19 0.18 0.19 0.15 0.13 0.14 0.17 0.16 0.20 0.18 0.12 0.14 0.30 0.29 0.25 0.24 0.27 0.30 0.33 0.34 0.32 0.35 0.38 0.44 0.52 0.59 0.65 0.68
0.36 0.35 0.55 0.75 0.84 0.75 0.57 0.42 0.44 0.41 0.38 0.41 0.47 0.46 0.48 0.45 0.42 0.44 0.41 0.44 0.41 0.45 0.40 0.36 0.31 0.29 0.29 0.27 0.24 0.23 0.22 0.18 0.20 0.18 0.22 0.23 0.25 0.27 0.27 0.27 0.27 0.26 0.26 0.24 0.26 0.29 0.31 0.25 0.22 0.23 0.25 0.26 0.26 0.27 0.27 0.27 0.26 0.23 0.22 0.21 0.19 0.16 0.17 0.17 0.16 0.18 0.15 0.17 0.16 0.15 0.12 0.15 0.24 0.38 0.33 0.32 0.32 0.33 0.38 0.39 0.37 0.40 0.46 0.53 0.57 0.61 0.66 0.70
0.37 0.39 0.47 0.70 0.81 0.72 0.52 0.35 0.35 0.37 0.40 0.44 0.44 0.43 0.48 0.44 0.42 0.40 0.40 0.44 0.42 0.40 0.35 0.33 0.34 0.35 0.27 0.31 0.27 0.23 0.27 0.17 0.21 0.21 0.22 0.26 0.25 0.30 0.27 0.26 0.27 0.24 0.24 0.23 0.24 0.33 0.25 0.26 0.25 0.20 0.20 0.21 0.23 0.24 0.24 0.25 0.25 0.21 0.19 0.20 0.19 0.19 0.18 0.19 0.19 0.21 0.15 0.16 0.15 0.13 0.11 0.15 0.25 0.36 0.40 0.36 0.35 0.34 0.35 0.42 0.46 0.46 0.53 0.57 0.59 0.66 0.71 0.75
0.37 0.45 0.46 0.56 0.73 0.66 0.46 0.48 0.42 0.39 0.39 0.38 0.38 0.37 0.40 0.43 0.46 0.44 0.43 0.42 0.49 0.44 0.39 0.33 0.33 0.34 0.30 0.34 0.29 0.33 0.33 0.28 0.21 0.24 0.25 0.26 0.26 0.31 0.28 0.26 0.27 0.27 0.27 0.29 0.31 0.35 0.29 0.28 0.25 0.19 0.17 0.15 0.16 0.16 0.16 0.17 0.19 0.20 0.20 0.20 0.20 0.18 0.17 0.17 0.15 0.17 0.14 0.17 0.16 0.14 0.14 0.17 0.22 0.28 0.32 0.36 0.37 0.37 0.41 0.45 0.51 0.54 0.53 0.56 0.61 0.67 0.71 0.75
0.31 0.23 0.34 0.44 0.59 0.59 0.56 0.59 0.51 0.43 0.39 0.38 0.36 0.38 0.42 0.38 0.45 0.49 0.48 0.45 0.48 0.49 0.44 0.39 0.38 0.37 0.31 0.30 0.28 0.28 0.28 0.32 0.26 0.24 0.26 0.25 0.29 0.30 0.28 0.27 0.27 0.27 0.28 0.30 0.35 0.34 0.31 0.33 0.29 0.25 0.20 0.17 0.17 0.19 0.22 0.22 0.21 0.19 0.19 0.19 0.19 0.19 0.19 0.18 0.18 0.16 0.14 0.17 0.15 0.16 0.16 0.17 0.19 0.20 0.26 0.32 0.37 0.37 0.38 0.44 0.46 0.50 0.55 0.62 0.66 0.69 0.71 0.75
0.38 0.27 0.30 0.30 0.46 0.51 0.47 0.52 0.48 0.46 0.39 0.43 0.34 0.40 0.37 0.40 0.43 0.44 0.51 0.43 0.49 0.45 0.46 0.42 0.37 0.31 0.30 0.29 0.26 0.26 0.28 0.28 0.31 0.29 0.28 0.27 0.34 0.31 0.32 0.31 0.29 0.29 0.29 0.32 0.40 0.37 0.34 0.27 0.29 0.28 0.26 0.26 0.28 0.25 0.23 0.22 0.19 0.19 0.19 0.18 0.19 0.18 0.18 0.17 0.15 0.14 0.19 0.16 0.13 0.16 0.18 0.18 0.18 0.20 0.24 0.28 0.36 0.42 0.44 0.46 0.49 0.53 0.57 0.59 0.63 0.70 0.74 0.78
0.26 0.33 0.40 0.42 0.37 0.35 0.39 0.42 0.48 0.45 0.45 0.45 0.40 0.44 0.39 0.40 0.41 0.37 0.46 0.48 0.47 0.47 0.41 0.41 0.41 0.37 0.33 0.30 0.31 0.28 0.29 0.30 0.31 0.28 0.35 0.36 0.32 0.30 0.22 0.25 0.26 0.27 0.29 0.35 0.41 0.37 0.34 0.26 0.29 0.31 0.28 0.29 0.29 0.28 0.27 0.22 0.21 0.20 0.19 0.19 0.18 0.18 0.18 0.16 0.16 0.17 0.17 0.14 0.13 0.15 0.18 0.19 0.19 0.21 0.26 0.30 0.38 0.44 0.47 0.50 0.54 0.58 0.63 0.66 0.67 0.68 0.70 0.74
0.35 0.36 0.37 0.44 0.34 0.40 0.42 0.44 0.48 0.45 0.42 0.42 0.42 0.43 0.40 0.40 0.38 0.44 0.44 0.43 0.44 0.41 0.44 0.35 0.39 0.39 0.37 0.37 0.34 0.30 0.32 0.26 0.25 0.35 0.31 0.31 0.28 0.22 0.18 0.22 0.25 0.27 0.30 0.33 0.38 0.42 0.37 0.30 0.32 0.30 0.28 0.28 0.27 0.27 0.27 0.23 0.21 0.20 0.19 0.19 0.19 0.19 0.18 0.18 0.17 0.18 0.18 0.16 0.16 0.17 0.19 0.20 0.23 0.26 0.30 0.36 0.44 0.51 0.56 0.61 0.63 0.60 0.60 0.62 0.65 0.67 0.70 0.74
0.27 0.30 0.28 0.38 0.39 0.39 0.42 0.45 0.46 0.45 0.39 0.40 0.36 0.39 0.41 0.41 0.39 0.42 0.47 0.45 0.38 0.40 0.45 0.39 0.39 0.41 0.40 0.40 0.37 0.32 0.35 0.36 0.33 0.29 0.32 0.32 0.26 0.28 0.21 0.22 0.21 0.26 0.31 0.31 0.35 0.42 0.37 0.29 0.34 0.31 0.27 0.25 0.27 0.28 0.26 0.23 0.21 0.19 0.20 0.19 0.18 0.19 0.19 0.18 0.18 0.18 0.19 0.18 0.19 0.19 0.20 0.21 0.26 0.30 0.35 0.44 0.50 0.57 0.59 0.57 0.58 0.61 0.63 0.64 0.63 0.66 0.71 0.71
0.35 0.42 0.40 0.30 0.29 0.34 0.40 0.42 0.43 0.43 0.40 0.37 0.34 0.37 0.39 0.40 0.40 0.46 0.45 0.52 0.47 0.41 0.44 0.40 0.44 0.41 0.41 0.40 0.40 0.37 0.40 0.40 0.40 0.37 0.38 0.35 0.26 0.33 0.29 0.26 0.28 0.24 0.29 0.29 0.34 0.41 0.39 0.32 0.35 0.31 0.25 0.23 0.27 0.25 0.24 0.23 0.21 0.20 0.19 0.19 0.18 0.18 0.17 0.18 0.17 0.20 0.17 0.16 0.17 0.19 0.19 0.19 0.25 0.35 0.41 0.46 0.49 0.51 0.52 0.55 0.57 0.60 0.62 0.64 0.63 0.67 0.69 0.71
0.39 0.42 0.43 0.36 0.26 0.34 0.34 0.39 0.41 0.43 0.38 0.41 0.40 0.38 0.38 0.39 0.44 0.46 0.41 0.50 0.55 0.55 0.51 0.49 0.47 0.47 0.44 0.42 0.37 0.39 0.44 0.47 0.44 0.44 0.43 0.44 0.43 0.41 0.42 0.36 0.34 0.28 0.29 0.29 0.38 0.38 0.38 0.34 0.30 0.28 0.24 0.23 0.27 0.25 0.23 0.22 0.20 0.18 0.18 0.18 0.18 0.18 0.19 0.20 0.20 0.22 0.20 0.20 0.18 0.17 0.19 0.24 0.29 0.36 0.34 0.41 0.48 0.53 0.56 0.58 0.60 0.64 0.66 0.64 0.64 0.67 0.70 0.74
Wind_Speed
20 21 21 22 22 22 23 23 23 23 23 24 24 24 25 25 26 27 27 28 28 29 29 29 30 30 31 32 33 33 34 35 35 36 36 36 36 36 37 37 38 39 40 40 40 39 38 38 39 39 38 39 39 39 39 38 36 36 35 37 39 38 36 34 32 30 28 27 25 24 24 24 22 21 21 20 19 18 18 18 18 18 18 18 16 15 16 17
21 22 22 22 22 22 23 23 23 24 24 25 25 25 26 26 27 27 27 28 28 29 29 29 29 30 30 31 31 32 33 33 34 34 34 35 35 35 35 36 37 38 39 40 40 39 38 38 38 38 38 38 38 39 39 38 38 38 36 39 40 38 36 34 33 31 29 28 27 25 25 26 24 22 22 22 21 20 19 18 19 18 17 17 16 15 17 18
22 22 22 23 23 23 23 23 24 24 25 25 26 26 27 27 27 28 28 28 29 29 30 30 30 30 30 30 31 31 32 33 33 32 32 32 32 33 33 34 35 37 38 39 39 39 38 37 37 38 38 38 38 38 39 39 39 39 38 41 40 36 35 35 34 33 31 29 28 26 25 26 25 23 24 23 22 22 21 20 20 20 20 19 18 18 19 19
22 22 23 23 23 23 23 24 24 25 25 26 26 27 28 28 28 29 29 29 29 29 30 30 30 30 30 30 31 31 31 32 31 31 31 30 31 31 32 32 33 35 37 38 38 38 38 37 36 37 37 37 38 38 39 40 39 39 40 41 38 36 37 36 35 34 32 30 29 26 25 26 25 24 24 23 22 23 23 23 23 22 23 21 20 20 20 20
23 23 23 23 24 24 24 24 25 25 26 27 27 28 28 29 29 29 29 30 30 30 30 30 31 31 30 30 31 31 30 30 29 30 30 30 30 30 30 31 31 32 35 37 37 37 37 37 36 36 36 36 37 38 39 40 39 38 40 39 36 37 37 36 35 34 32 30 28 26 26 26 25 25 25 25 24 24 23 24 24 23 23 23 22 21 21 21
23 23 23 24 24 24 25 25 26 26 27 28 28 28 29 29 29 29 29 30 30 30 30 30 30 31 30 30 31 30 29 29 29 30 30 30 30 30 30 30 30 31 34 36 37 37 37 37 36 36 36 36 37 38 37 39 40 39 39 38 37 38 37 35 35 34 32 31 29 27 26 26 25 25 26 26 25 23 23 23 23 23 23 23 22 22 23 23
23 24 24 24 25 25 26 26 26 27 27 28 28 28 29 29 29 29 29 29 29 30 30 30 30 30 30 30 30 28 29 30 31 32 32 32 31 31 31 30 29 30 33 35 36 37 37 38 37 36 36 36 37 37 35 37 40 40 39 37 38 38 37 35 34 34 33 32 29 27 27 26 26 26 26 27 25 24 24 23 22 22 22 22 22 23 24 23
24 24 24 25 25 26 26 27 27 27 27 27 28 28 28 29 29 29 29 29 29 29 29 29 30 29 29 29 28 28 30 30 30 31 32 32 32 32 32 31 30 30 31 33 35 36 36 37 37 36 36 36 36 36 36 35 38 41 39 36 37 37 38 36 34 33 32 31 30 28 28 27 27 27 27 27 26 25 24 23 22 22 23 23 23 24 24 23
24 24 25 26 26 27 27 27 27 27 27 28 28 29 29 29 29 29 29 29 29 29 29 29 29 29 28 28 27 27 29 28 28 29 31 32 33 33 32 31 31 30 31 33 34 35 36 36 37 36 36 36 35 36 36 36 37 39 38 36 36 37 37 37 35 33 31 31 31 30 30 29 28 27 28 28 27 26 25 24 23 23 24 24 24 25 24 23
25 25 26 27 27 27 27 27 27 28 28 28 29 29 29 30 30 30 30 29 29 29 29 29 28 28 28 27 26 26 28 28 28 30 31 32 33 33 32 32 32 31 31 32 33 35 35 35 36 36 35 35 36 35 36 37 34 34 37 37 38 37 36 36 36 34 32 30 31 30 30 30 29 29 29 28 27 26 25 24 24 24 24 24 24 24 24 23
25 26 26 27 27 27 27 27 28 28 28 29 29 29 30 30 30 30 30 30 29 29 29 28 28 27 27 27 27 27 28 29 30 32 33 34 34 34 33 33 32 32 32 32 33 34 35 35 35 35 35 35 35 35 35 36 34 33 35 36 38 38 37 36 35 33 32 31 31 30 30 29 28 30 30 27 27 27 26 25 25 25 24 24 24 23 23 22
26 26 27 27 27 27 27 28 28 28 29 29 29 29 29 30 30 30 30 29 29 29 28 28 28 27 27 28 29 30 30 31 32 33 34 33 34 34 34 34 33 33 33 32 33 33 35 35 35 35 35 34 35 34 34 36 35 33 33 33 35 37 38 38 35 32 32 32 31 30 30 31 31 30 29 28 27 26 26 26 26 25 24 24 24 22 21 21
26 27 27 27 27 27 28 28 28 28 29 29 30 29 30 30 30 30 29 29 28 28 28 27 27 27 28 28 28 30 32 33 33 33 32 32 33 33 34 34 33 33 33 33 33 33 34 35 35 36 35 34 34 33 32 34 35 34 33 33 32 33 37 38 36 33 33 31 30 30 31 32 31 29 28 28 27 27 26 27 27 26 25 24 23 22 21 20
27 27 28 28 28 28 28 28 29 29 29 30 30 30 30 30 30 29 28 28 27 27 26 26 26 26 27 28 28 30 31 31 30 30 30 31 31 32 33 34 33 33 34 34 34 33 34 34 35 36 36 35 34 32 31 31 33 34 32 33 33 32 33 35 36 34 33 31 31 32 32 31 28 28 28 28 27 27 27 28 28 27 26 25 24 23 22 20
27 28 28 28 29 28 28 28 29 29 30 30 30 29 30 30 28 27 27 27 26 26 25 24 25 25 27 28 28 28 28 28 28 28 29 29 30 31 32 34 34 34 34 35 35 34 34 34 35 35 35 36 34 32 32 31 32 33 33 33 35 34 30 31 34 35 34 31 31 32 31 29 27 27 28 28 28 27 27 28 28 28 27 26 24 23 22 21
28 29 29 29 29 28 28 28 29 30 30 30 29 29 29 29 27 26 26 26 25 25 24 24 24 25 26 26 25 25 26 26 27 27 28 29 30 32 33 34 34 34 34 34 35 34 34 34 35 35 35 35 35 33 32 31 31 33 35 33 34 35 30 28 30 33 34 31 32 34 30 27 27 26 27 28 28 28 28 29 29 28 28 27 25 24 22 21
29 29 29 29 29 28 28 29 29 30 29 29 29 29 29 28 26 25 24 24 23 23 23 23 23 24 25 25 24 25 25 26 27 27 29 30 32 33 34 34 34 34 34 34 35 35 35 35 35 35 36 36 35 33 32 33 33 34 36 33 32 35 32 28 27 29 33 33 33 35 31 27 25 26 28 28 28 28 28 29 29 28 27 27 25 24 23 21
30 30 30 29 29 28 28 29 30 30 29 29 29 29 29 26 24 23 22 22 22 22 23 23 22 23 24 23 23 24 24 26 28 29 31 32 32 33 33 35 35 35 35 35 36 36 35 35 35 35 36 37 36 36 35 33 34 34 35 33 30 31 33 31 27 27 31 34 34 34 34 30 26 26 28 28 29 29 29 29 28 28 27 26 25 24 23 22
30 30 30 29 29 29 29 30 30 29 29 29 28 28 26 23 22 22 21 21 22 22 23 23 22 24 24 23 24 25 26 28 29 30 31 31 31 32 33 34 36 36 36 36 36 37 36 35 36 37 38 40 40 41 37 29 29 33 33 32 30 29 31 31 28 27 30 31 33 34 34 32 28 27 27 28 29 29 29 29 28 27 26 25 25 24 23 23
30 30 30 29 29 29 30 30 30 29 29 28 28 27 24 22 22 22 22 24 25 25 26 26 26 26 27 27 27 28 28 28 29 29 29 29 30 31 33 34 35 37 38 38 37 36 37 36 38 40 40 41 40 40 37 29 26 30 32 31 31 29 29 30 28 27 28 29 31 33 33 32 30 28 27 27 28 29 29 29 28 27 26 25 24 24 24 24
31 31 30 29 29 30 31 30 29 29 29 27 26 25 22 22 23 23 24 25 25 26 27 28 28 27 27 27 27 27 27 27 28 28 28 30 29 30 32 34 35 38 39 38 36 35 37 38 41 41 38 37 37 37 38 33 27 27 31 31 31 30 28 28 28 27 27 27 27 29 31 32 31 29 28 28 29 29 29 29 29 28 27 25 25 25 25 23
31 31 30 30 30 31 31 30 29 29 28 26 25 24 22 23 23 24 25 25 24 25 27 27 27 26 26 26 26 25 25 25 26 26 27 29 30 30 31 33 37 39 39 38 37 36 38 40 40 39 36 35 37 37 38 37 30 26 29 31 30 29 26 26 27 26 27 27 25 26 30 30 29 29 29 29 29 28 29 29 29 29 28 27 26 26 25 23
31 31 31 30 30 32 31 30 30 28 26 25 25 24 23 23 23 24 24 24 24 23 24 24 23 23 23 23 22 22 22 23 24 24 24 26 28 30 32 33 37 39 39 40 40 38 38 39 39 37 36 36 37 37 39 38 33 27 28 30 29 28 27 26 27 26 26 25 24 26 28 27 27 29 30 30 30 28 28 29 29 29 29 28 27 25 24 24
32 31 31 31 31 32 32 31 29 26 25 26 25 24 24 23 23 23 22 22 22 21 21 20 18 19 19 18 17 17 19 20 21 22 22 24 25 28 31 33 36 39 41 43 43 41 37 34 36 39 38 37 37 37 38 37 35 30 28 29 28 28 28 24 24 25 24 25 25 25 26 27 29 30 30 30 30 29 29 28 29 29 28 28 26 25 24 24
32 31 31 31 31 32 32 30 26 25 26 27 25 24 23 22 21 21 20 21 21 19 17 15 14 15 14 14 14 14 16 18 20 20 20 22 23 25 28 31 34 38 42 43 43 42 38 31 34 39 39 38 37 36 38 38 35 32 29 29 27 27 28 24 22 25 25 26 27 27 25 25 29 31 31 30 29 29 28 28 29 29 29 27 26 25 24 24
32 31 31 32 32 32 31 27 24 26 28 26 24 24 23 21 19 18 19 20 19 15 12 11 12 12 11 12 12 13 15 16 17 18 18 20 21 22 25 29 33 37 40 41 40 39 39 34 32 36 39 39 37 36 37 37 35 33 29 28 27 26 27 26 25 26 26 26 27 29 26 23 26 31 31 30 30 29 28 28 29 29 29 28 26 25 25 23
32 32 31 32 32 31 29 26 26 28 27 25 23 23 21 19 17 17 18 17 15 12 11 11 11 11 12 12 11 12 14 15 13 13 15 18 20 21 24 28 32 35 37 38 38 38 40 38 33 34 37 38 38 35 36 36 35 32 28 26 27 26 25 25 26 26 25 23 24 28 27 23 24 29 31 31 31 31 30 29 29 28 28 28 27 26 25 23
33 32 32 32 32 31 28 27 28 27 26 24 22 20 19 17 16 17 16 15 12 11 11 11 11 11 12 11 11 12 15 15 12 10 11 15 18 19 23 28 30 34 37 38 39 37 40 41 35 33 36 37 37 35 34 35 33 31 28 25 25 25 24 24 24 24 23 23 25 28 28 24 22 25 29 31 32 32 32 31 30 29 29 29 28 27 25 23
33 33 32 32 32 30 27 26 26 25 24 21 19 17 17 16 16 16 14 12 12 12 12 11 11 11 11 11 11 13 14 13 11 9 8 12 16 17 21 25 28 33 36 38 38 33 35 41 36 33 34 34 35 34 33 34 32 29 28 24 22 23 23 23 23 23 22 24 27 28 29 26 21 24 29 31 33 33 31 30 29 29 29 29 28 28 26 23
34 33 33 32 31 28 25 25 24 23 21 18 17 17 17 17 16 15 13 11 12 13 12 11 11 11 12 12 12 12 12 12 10 8 7 9 15 17 18 22 26 30 33 36 37 31 31 37 36 32 32 31 32 33 33 34 31 28 28 26 22 21 21 22 22 21 22 24 25 28 30 27 22 24 29 30 30 31 29 28 28 28 29 29 28 27 26 24
34 33 32 30 28 26 24 24 23 21 18 16 16 16 17 17 15 13 12 12 13 13 12 11 12 13 13 14 13 11 11 10 9 8 6 7 14 17 17 21 25 28 31 33 35 32 29 34 35 32 31 31 31 32 32 33 31 29 30 28 24 21 20 20 21 22 23 24 23 26 29 28 25 25 27 28 28 29 29 28 28 29 29 28 27 27 27 25
34 33 31 28 25 24 23 22 22 19 17 15 15 16 16 16 14 12 12 14 13 11 12 13 13 14 14 14 13 11 10 8 7 8 6 6 12 17 18 21 25 27 30 31 34 33 29 32 34 32 32 32 32 32 31 32 31 31 31 29 25 23 21 22 22 23 24 22 21 25 27 26 26 25 26 28 28 29 29 28 28 29 28 28 27 27 26 25
34 32 28 25 24 23 21 20 20 18 16 15 16 16 16 16 15 13 14 14 12 12 14 14 14 14 14 14 12 10 9 6 6 7 5 6 11 16 18 20 23 25 28 31 33 32 28 29 33 33 32 32 33 33 33 33 33 34 33 32 28 25 23 24 24 23 22 21 21 24 26 24 24 24 26 28 28 28 29 28 29 28 27 27 27 27 26 25
33 29 25 24 23 23 21 18 18 17 16 16 16 16 15 15 16 15 15 14 13 14 14 13 15 15 13 12 10 8 6 5 8 7 5 6 11 15 18 21 23 23 26 30 31 31 29 28 33 34 31 33 34 33 32 33 33 33 32 30 29 25 22 22 23 22 21 20 20 23 24 23 22 22 25 28 27 27 28 27 27 25 24 25 26 27 27 25
31 25 23 23 23 23 20 17 17 17 17 17 16 15 15 16 17 17 16 15 15 16 15 14 15 15 12 9 8 7 5 6 9 7 5 7 10 13 17 21 22 22 25 28 28 30 29 26 31 33 29 32 34 31 30 31 31 31 29 29 29 25 19 18 19 20 20 18 20 23 22 20 21 20 20 24 25 25 25 25 24 24 25 25 26 27 27 26
28 23 22 23 23 23 20 17 17 17 17 18 17 16 15 16 17 18 17 16 15 16 17 15 13 11 9 7 6 6 4 7 9 7 6 7 9 12 16 19 22 23 25 26 26 29 27 24 29 31 28 31 32 30 31 31 30 30 30 30 29 24 19 18 18 18 19 19 20 22 22 19 20 20 19 22 24 25 25 25 25 25 25 26 26 27 27 26
26 22 22 22 23 23 19 17 17 16 17 18 17 17 17 17 17 17 17 16 16 16 16 15 10 8 8 7 6 6 3 9 10 7 6 7 9 12 15 18 21 23 23 23 24 27 25 23 27 31 30 29 29 30 32 30 28 30 31 29 27 24 20 18 18 18 20 20 19 21 22 21 20 19 20 23 25 25 26 26 26 25 26 26 26 26 26 25
25 22 21 22 23 22 19 16 16 17 18 18 18 18 18 17 17 17 16 16 17 16 14 13 10 8 7 6 6 5 3 10 11 8 7 8 8 12 16 19 21 22 22 22 22 24 24 22 25 30 30 28 27 28 31 30 28 28 29 28 27 26 23 20 18 19 21 20 18 19 20 21 22 20 20 23 26 26 26 26 26 27 27 27 26 26 26 24
24 21 20 22 23 22 18 16 16 17 18 19 19 19 19 18 18 17 17 16 17 16 14 13 11 8 7 6 6 4 4 10 11 9 8 8 8 12 17 19 20 21 22 22 21 23 24 21 23 27 27 27 28 28 31 32 29 27 28 28 27 25 24 21 18 18 19 19 18 17 18 20 22 21 21 23 25 25 25 26 27 27 28 27 26 26 25 24
23 21 20 22 22 20 17 16 17 18 18 19 19 19 19 19 19 18 17 16 16 16 15 15 13 9 7 6 4 2 5 10 11 9 9 8 8 12 17 19 20 20 21 21 20 22 23 21 22 25 26 27 30 30 30 32 32 29 29 30 28 25 23 22 20 17 17 18 18 17 17 18 20 21 21 23 23 24 24 25 26 27 28 27 26 27 26 25
23 20 20 22 21 18 16 16 17 18 18 19 19 19 19 19 19 19 17 15 15 15 15 15 14 10 7 4 1 2 7 10 11 9 8 8 9 12 16 19 21 21 20 20 20 21 21 20 21 26 27 27 27 28 28 29 31 30 28 28 29 27 25 24 22 19 17 15 16 17 16 16 17 19 20 21 20 21 23 24 25 26 26 26 26 27 26 25
22 20 20 21 19 17 17 17 17 18 18 18 18 19 19 20 19 19 17 15 14 14 14 14 14 10 7 3 2 5 8 10 10 9 8 8 9 11 15 19 21 21 21 20 19 20 20 19 20 24 25 24 22 24 26 27 28 28 27 26 28 28 26 26 23 20 18 16 14 15 15 14 14 15 17 18 17 19 21 21 21 23 24 25 26 26 25 24
21 20 21 20 17 17 19 18 17 18 18 18 19 19 19 19 18 17 17 16 15 15 14 14 13 11 8 5 5 7 9 10 9 9 8 7 9 12 15 19 22 22 21 19 18 19 19 18 19 21 22 21 20 21 24 26 27 28 28 27 28 28 27 24 22 20 19 18 15 14 15 14 14 14 16 17 17 19 20 20 21 22 23 25 25 25 24 24
21 20 20 19 17 17 19 19 18 18 18 19 19 20 18 16 16 15 16 16 16 15 14 14 13 11 9 7 8 8 9 9 8 8 8 8 9 12 15 21 23 21 19 19 19 18 18 17 19 21 22 21 20 21 24 27 28 29 29 28 28 28 26 23 22 21 20 19 17 15 14 14 14 13 14 16 18 20 20 21 22 23 24 24 25 25 24 24
20 19 19 19 17 17 18 18 18 18 18 19 19 19 18 16 15 14 14 15 15 14 13 13 12 11 9 8 8 8 8 8 7 7 8 8 9 12 15 20 22 20 18 19 19 17 16 16 18 19 22 23 23 23 25 28 29 28 28 28 27 28 28 26 23 22 22 19 18 17 15 14 13 12 12 14 17 19 20 20 22 23 24 24 24 24 24 23
19 19 20 19 17 16 17 18 18 17 18 19 19 19 18 17 16 14 12 14 14 13 12 11 11 11 9 8 8 8 8 7 7 7 7 8 9 12 15 18 20 20 19 19 18 16 15 16 17 17 20 22 21 21 22 25 27 27 28 29 27 27 28 27 24 23 22 19 18 18 16 14 14 13 12 13 16 18 20 21 22 23 24 24 24 23 23 22
19 19 20 20 17 16 17 17 17 17 17 17 17 18 19 19 18 15 12 13 13 12 11 10 9 9 9 9 8 7 7 7 7 7 6 7 9 11 14 17 20 21 21 19 16 15 15 15 16 16 17 18 18 18 20 23 27 28 28 29 28 26 26 28 26 23 21 19 19 19 16 15 15 13 12 14 15 18 20 21 22 23 24 24 23 23 22 22
19 18 19 20 18 17 17 17 18 19 18 16 15 17 19 20 19 17 14 13 12 12 11 10 8 6 6 7 6 6 6 6 6 6 6 7 9 12 15 18 19 21 21 18 15 14 15 15 15 15 15 16 18 20 21 23 25 26 27 28 28 27 27 28 26 24 22 21 20 18 16 17 16 12 11 14 15 17 20 21 21 23 24 24 23 22 22 22
18 18 18 19 18 17 18 18 18 19 17 16 15 16 18 20 20 18 15 13 12 11 10 9 8 6 4 4 5 5 5 6 6 6 6 7 10 13 16 18 18 19 20 17 14 13 14 14 14 14 13 14 17 20 22 22 23 24 26 27 28 27 26 26 25 23 23 22 20 18 18 18 15 11 11 13 15 17 19 21 22 24 24 24 24 23 22 22
18 18 18 18 17 17 17 17 17 17 17 15 15 15 17 19 19 19 15 12 12 11 9 8 8 6 4 4 4 3 3 5 5 5 6 8 10 13 16 16 17 19 18 16 14 13 12 13 13 12 11 12 15 18 21 22 23 23 24 25 27 27 26 25 23 22 22 22 20 19 19 18 14 11 11 13 14 17 19 21 23 23 23 24 24 24 23 22
18 18 18 18 17 16 17 16 16 16 16 15 15 16 17 18 19 19 15 11 9 9 8 8 8 6 5 3 2 3 4 5 4 3 5 8 10 13 15 15 16 18 17 15 14 12 10 11 12 11 11 11 13 16 19 20 21 22 23 25 27 27 25 24 22 21 22 22 21 20 20 18 14 12 12 13 15 17 20 22 23 23 23 24 24 24 24 23
19 18 18 17 17 16 16 16 15 15 15 15 15 15 16 16 18 18 16 12 11 9 8 7 7 6 5 4 1 4 5 5 4 3 4 7 10 13 14 15 16 16 16 15 12 10 9 9 10 10 10 10 12 16 18 18 18 20 22 26 27 26 24 22 21 21 21 21 21 21 19 16 15 14 14 15 16 18 19 22 22 23 24 24 24 23 23 22
Wind_Direction
309 307 305 302 300 299 297 296 294 292 291 289 288 286 284 283 282 280 279 278 276 275 275 273 271 270 268 268 267 266 265 263 261 257 253 250 248 247 248 249 248 247 244 241 240 239 239 238 236 235 234 234 234 234 232 233 233 233 235 237 237 237 236 235 235 237 239 240 238 237 236 237 241 242 243 246 247 246 248 252 252 254 253 253 251 241 231 225
310 309 307 305 303 301 299 297 295 294 292 291 289 287 286 284 282 281 280 279 277 276 275 274 273 272 270 269 267 267 266 263 260 255 251 249 248 248 249 250 249 246 242 239 238 237 236 237 235 233 233 233 234 233 231 232 232 233 235 237 238 237 237 236 236 237 238 239 238 238 237 237 241 240 241 245 247 245 246 250 251 251 249 247 243 236 228 223
312 311 309 307 305 302 300 299 297 295 293 291 290 288 287 285 284 282 281 279 278 276 275 274 274 273 271 270 268 268 265 263 258 250 248 249 248 249 250 251 251 246 241 237 236 235 235 235 235 233 232 233 233 232 231 231 232 234 235 237 238 238 238 238 236 236 237 238 238 239 238 238 241 240 242 245 244 245 247 247 248 247 243 240 237 233 228 223
314 312 311 308 306 304 302 299 297 295 294 292 291 290 289 288 286 285 283 282 280 278 276 274 274 273 272 271 270 269 264 261 254 246 248 249 249 251 252 252 251 246 240 236 235 233 234 234 234 232 232 233 232 231 231 230 232 233 234 237 238 237 238 238 236 236 237 238 239 239 237 238 240 240 241 241 243 247 248 246 246 244 239 235 233 230 226 222
315 314 312 310 308 305 303 300 298 296 295 294 293 292 291 290 289 288 286 285 283 281 278 276 274 273 272 271 271 269 264 257 250 246 248 249 250 252 252 253 250 245 239 235 234 232 232 232 232 231 231 232 231 231 232 230 232 234 235 238 238 236 238 238 237 237 237 238 240 237 236 238 239 240 239 238 243 248 248 247 246 244 238 234 230 228 226 224
316 314 313 311 309 307 304 302 301 300 298 297 296 295 294 293 291 290 288 286 284 282 281 278 276 275 273 272 271 267 261 256 251 247 248 250 251 253 253 253 249 244 239 235 233 231 231 230 230 230 231 232 230 231 232 230 231 234 236 237 237 235 237 238 236 237 237 237 238 237 238 238 237 239 240 240 244 247 248 248 245 242 237 233 229 227 226 226
316 314 312 311 309 307 306 304 303 302 301 300 299 298 296 295 293 291 289 287 285 283 281 279 277 276 274 273 270 264 260 258 254 249 250 252 252 254 254 251 248 244 239 235 233 231 230 229 229 230 230 231 231 231 232 230 231 234 235 235 236 235 236 237 236 236 237 237 237 237 238 236 235 238 240 241 244 245 247 246 242 239 234 230 229 227 225 225
316 315 313 311 310 308 307 305 304 303 302 301 300 298 297 295 293 291 289 288 286 284 281 278 277 275 274 273 269 265 261 258 256 252 251 252 252 253 253 249 246 244 239 236 234 231 230 228 228 229 230 231 231 230 230 230 231 233 234 234 235 235 236 236 237 236 236 237 237 237 237 236 237 239 239 240 242 244 244 241 238 235 230 228 228 227 225 224
317 316 315 313 312 311 309 307 306 304 303 302 300 299 297 295 293 292 290 288 287 284 282 279 277 274 272 270 267 264 261 257 256 255 253 254 253 253 251 247 245 244 240 237 234 231 230 229 228 228 230 230 230 229 228 229 231 232 232 233 234 235 235 235 236 236 236 236 236 235 236 237 238 238 239 239 241 241 239 237 235 230 227 225 227 226 224 225
319 317 316 315 314 313 311 309 307 306 304 302 301 299 298 296 294 292 290 288 287 284 282 280 277 275 271 267 264 261 259 257 257 258 259 258 255 252 249 246 245 243 240 238 235 231 229 229 228 228 231 230 229 229 227 228 231 232 231 231 233 234 234 234 235 235 234 235 234 233 235 236 236 236 238 237 237 237 234 233 230 226 224 223 225 225 225 226
320 319 318 317 316 314 312 311 309 308 306 304 303 301 299 297 295 293 291 289 287 285 282 279 277 274 270 266 260 259 259 259 259 261 262 260 256 252 249 246 244 241 238 237 234 231 229 228 228 228 229 229 228 229 228 229 231 231 230 230 231 233 234 233 233 232 232 233 231 232 235 236 233 234 236 234 232 231 229 228 226 224 222 222 223 224 226 226
322 321 320 319 317 315 313 311 310 309 307 306 304 303 301 298 296 294 291 289 287 285 282 279 277 273 270 265 259 259 262 263 263 263 261 259 255 252 248 245 242 239 236 235 234 231 229 227 227 227 227 228 227 227 229 229 229 230 229 230 230 231 233 232 230 229 229 231 228 227 234 235 230 231 233 230 228 227 226 225 223 222 221 221 222 223 225 226
324 323 322 321 319 316 314 313 311 310 309 307 306 304 302 301 298 294 291 290 288 287 284 280 276 272 270 265 261 263 265 265 264 262 259 256 254 251 247 243 240 237 235 234 232 229 227 227 226 226 227 228 227 227 230 228 227 228 229 231 230 230 232 229 228 227 226 229 225 223 232 233 228 228 229 227 224 223 224 223 221 221 220 220 221 223 225 226
327 326 324 322 320 317 315 314 312 311 310 309 307 305 303 303 299 294 291 290 288 288 285 281 276 272 269 266 267 268 266 264 262 260 257 254 253 251 245 242 239 236 233 232 231 228 227 226 225 225 226 226 227 230 230 227 225 226 227 229 229 229 231 227 225 224 224 227 223 222 232 232 227 227 225 224 221 220 221 221 220 220 219 220 222 224 227 228
329 327 325 323 320 318 317 316 314 312 311 310 308 305 305 304 300 296 293 290 289 288 285 282 277 274 271 268 270 269 264 263 261 259 257 255 253 250 245 241 239 235 232 230 229 227 225 224 222 223 224 223 226 228 226 225 224 223 224 226 226 227 229 226 224 222 221 225 222 222 230 231 227 226 223 221 219 218 218 218 219 219 219 221 223 225 228 230
330 328 326 324 322 321 320 319 317 314 311 310 308 306 306 305 301 297 295 291 288 287 286 284 279 275 274 272 271 269 265 263 262 260 257 255 253 250 246 242 237 233 230 228 227 226 225 223 222 221 221 220 221 222 222 223 223 222 223 225 224 224 226 225 224 223 219 221 222 223 227 228 226 224 221 219 217 217 217 217 218 219 219 221 224 226 228 230
331 330 328 326 324 322 321 321 319 316 313 310 308 307 307 305 301 299 297 293 290 287 285 285 282 277 274 271 271 271 267 264 263 263 260 257 254 250 245 240 235 232 228 225 224 224 223 221 220 220 220 219 218 218 218 220 221 220 222 224 223 222 222 222 223 223 218 217 221 224 226 226 225 221 217 217 217 216 217 217 218 219 220 222 224 226 227 229
332 331 329 328 326 323 322 321 320 318 314 311 309 308 307 305 302 300 299 296 293 289 287 286 283 280 276 270 270 272 270 267 266 266 264 259 254 247 241 236 233 230 226 224 222 221 220 219 219 218 218 217 216 215 216 219 221 219 219 221 222 220 220 219 220 219 217 217 219 221 224 224 222 220 217 215 215 216 217 218 218 219 219 221 223 224 226 229
333 331 330 328 327 325 323 321 320 319 315 312 310 310 308 304 302 300 298 296 293 290 288 286 280 280 280 274 271 273 273 272 271 269 264 258 252 245 238 233 230 227 223 221 219 218 218 218 217 217 217 216 215 215 215 220 224 219 217 219 219 219 219 220 219 218 215 217 219 219 221 222 219 218 218 216 215 216 217 218 218 219 219 220 221 223 226 228
333 332 331 329 328 326 324 322 321 320 317 314 312 312 310 307 305 301 298 296 292 288 287 286 280 277 279 276 274 275 276 275 273 268 261 255 249 244 237 229 226 224 221 220 217 217 217 217 217 217 217 215 214 215 216 221 224 217 215 218 219 219 220 219 219 218 216 217 220 219 220 220 218 217 217 216 215 217 217 217 219 219 218 218 220 222 225 227
333 332 331 329 328 327 326 323 321 320 319 316 313 312 309 308 306 303 301 297 292 289 286 286 283 278 276 275 275 277 279 278 273 267 259 252 246 242 235 227 223 221 220 219 216 215 216 218 218 217 216 215 213 214 215 219 224 219 216 216 218 219 219 218 217 216 216 219 220 218 219 219 217 216 215 215 215 217 217 217 218 218 218 218 220 222 224 224
334 332 331 329 328 328 327 325 322 321 319 317 315 313 309 308 306 305 304 300 295 291 287 287 284 279 276 274 275 276 277 276 274 268 258 250 243 236 230 225 222 219 217 216 214 213 215 219 218 214 214 212 211 213 213 216 221 220 217 215 216 217 217 217 217 214 214 218 218 216 218 218 217 216 216 215 216 217 217 217 218 217 217 218 220 222 221 221
334 333 332 330 329 329 328 326 323 321 320 319 317 314 310 309 308 306 305 302 299 296 291 288 284 278 277 277 276 274 273 273 273 270 258 246 239 232 226 222 221 218 215 213 212 212 215 218 214 210 211 210 209 210 211 214 217 218 217 215 214 213 213 214 214 212 212 216 217 213 216 218 216 216 217 216 216 217 217 217 217 216 216 218 220 220 218 219
334 333 332 331 330 330 329 327 324 322 322 320 317 315 312 310 309 308 308 304 303 302 297 291 285 279 278 280 278 272 273 275 273 270 258 242 234 230 224 219 217 216 213 212 212 212 214 216 211 208 210 209 208 208 209 211 214 216 216 216 214 211 212 213 209 208 209 215 214 209 214 218 215 215 216 216 217 217 216 215 214 214 216 218 218 218 218 218
335 334 333 332 332 331 330 328 326 325 324 322 319 317 314 312 311 310 311 309 308 308 302 295 289 285 281 282 280 276 281 282 273 266 255 240 231 227 223 218 215 213 212 210 211 212 213 213 209 206 207 207 207 208 208 209 211 214 215 216 215 211 211 209 203 203 206 213 212 207 213 217 214 214 214 214 216 216 215 214 213 213 215 216 217 218 219 218
335 334 333 333 333 333 331 330 328 326 325 324 322 321 318 315 314 313 315 313 313 313 308 303 298 293 289 286 284 285 290 289 277 262 249 239 231 225 220 216 214 211 209 208 210 211 210 210 208 205 205 205 206 208 207 207 209 212 212 211 213 211 209 206 203 204 207 211 210 210 215 217 214 215 214 212 214 214 213 214 214 213 213 215 217 217 217 215
336 335 334 334 334 334 333 331 329 326 326 325 324 324 323 320 317 317 317 316 316 316 311 307 305 300 296 291 286 290 298 299 286 262 246 237 229 224 217 213 211 208 204 204 208 209 206 207 207 205 204 204 206 207 205 205 207 209 207 206 208 208 207 205 204 208 211 210 209 212 216 218 217 215 212 211 213 214 213 213 213 212 213 215 216 215 214 213
338 336 335 334 334 333 331 329 328 328 328 327 327 328 329 327 322 321 322 319 318 319 314 310 308 305 305 300 286 288 302 302 285 263 247 235 225 219 213 209 208 204 200 202 204 205 204 205 205 203 203 204 205 204 202 203 206 206 203 202 204 204 205 204 204 208 210 210 210 210 211 216 218 213 210 210 213 214 214 213 212 212 213 215 215 214 214 214
339 338 336 335 334 333 332 331 331 331 331 332 334 334 334 333 328 327 326 320 320 321 318 315 311 309 312 308 293 290 302 299 276 259 249 229 215 211 209 206 205 200 199 201 202 202 203 204 203 202 203 204 202 201 200 202 205 202 198 199 199 200 203 203 204 205 206 212 212 207 207 213 216 211 209 209 211 213 213 213 212 212 213 216 216 215 215 214
340 338 337 336 336 337 337 336 335 334 334 336 339 338 338 336 332 331 327 322 324 323 319 316 312 314 315 311 303 297 300 294 269 249 244 219 203 203 205 203 200 197 197 199 201 203 203 202 201 201 202 202 200 200 199 201 201 196 194 197 197 198 201 202 205 204 207 215 213 205 207 213 217 214 211 211 211 211 211 212 212 212 213 216 217 216 215 214
340 339 338 338 340 341 342 342 341 339 339 339 341 342 341 339 336 334 331 328 328 324 324 319 312 315 316 312 308 302 300 294 261 230 223 207 199 199 198 196 193 191 193 195 198 200 199 198 198 198 199 199 197 197 197 198 197 194 195 197 196 196 198 201 203 205 211 215 210 205 206 212 218 215 212 213 212 210 210 211 211 211 214 215 216 216 215 214
341 340 340 341 343 344 345 347 348 348 346 344 345 346 345 343 340 332 329 332 330 327 328 322 315 315 311 308 305 297 298 291 243 209 201 200 200 197 193 191 188 186 189 191 192 196 196 196 195 194 196 197 195 194 194 195 195 195 195 194 194 194 195 199 201 205 211 212 208 205 204 211 220 217 212 213 212 210 211 211 211 212 213 214 214 214 214 213
342 342 344 345 346 347 347 349 354 356 354 351 349 348 348 347 344 335 331 331 328 327 326 322 320 316 307 307 305 296 298 275 209 190 190 191 195 195 193 192 190 188 188 187 188 191 192 193 193 192 193 196 195 192 192 193 193 194 195 194 194 194 195 200 202 205 208 208 206 204 205 213 220 217 212 211 211 211 211 211 212 212 212 211 211 212 212 212
344 345 348 350 350 349 349 350 356 1 0 357 353 351 350 347 345 341 335 331 329 328 325 322 324 320 311 310 308 301 296 238 190 182 187 187 190 193 191 190 190 188 184 184 187 188 188 189 191 191 192 193 194 195 193 191 192 194 196 196 196 197 199 201 202 203 204 204 201 201 207 213 213 213 213 211 210 210 210 211 211 210 210 209 209 211 212 212
346 348 352 354 354 353 353 354 357 2 4 2 356 353 351 349 348 347 342 337 335 331 324 320 321 321 317 316 313 303 280 209 185 179 181 184 185 187 187 186 186 184 181 182 186 187 188 189 189 190 191 190 192 194 191 188 191 194 195 197 198 198 198 199 202 202 200 201 201 202 211 215 211 214 214 211 210 209 209 210 210 209 208 208 209 210 212 212
349 352 355 357 357 356 356 357 359 2 5 4 359 355 352 350 351 352 350 346 342 336 329 324 320 319 321 325 327 316 262 200 189 182 178 180 181 184 186 184 182 181 180 181 183 185 186 187 187 188 191 191 190 191 191 190 190 192 194 198 197 195 196 196 198 201 201 202 204 206 212 214 212 214 212 209 208 208 209 210 209 208 206 206 208 210 211 212
351 353 356 357 357 357 357 358 360 2 4 5 0 356 354 352 352 354 353 352 347 342 338 333 330 324 322 325 331 326 251 193 188 184 174 175 179 183 184 181 178 179 181 181 183 185 183 182 186 188 190 190 189 188 192 193 190 191 195 196 193 194 199 198 197 200 202 204 205 208 212 212 210 211 209 207 208 208 209 209 209 208 205 205 208 209 210 212
351 352 355 357 356 357 357 359 2 3 3 2 357 355 355 354 356 357 356 356 352 347 341 335 332 324 317 318 326 323 225 188 184 180 173 170 178 183 180 177 175 176 179 179 180 184 183 179 183 188 188 187 187 188 191 193 192 194 195 193 193 196 199 198 199 201 202 204 205 207 213 215 213 211 208 206 209 210 210 209 208 207 207 207 208 208 209 209
352 353 356 357 357 359 360 1 4 4 3 1 357 357 358 355 354 355 355 357 355 351 346 340 334 325 317 318 322 312 198 182 181 178 174 168 171 178 178 176 174 173 175 176 177 181 183 179 180 186 187 184 186 191 192 191 192 194 194 194 195 199 199 198 200 203 203 205 205 205 211 217 216 214 209 208 210 211 209 210 209 208 209 209 208 207 207 207
355 355 357 358 358 1 3 4 6 5 3 2 0 359 358 356 354 354 355 358 357 354 354 352 347 337 327 324 316 275 175 175 179 176 172 170 168 173 178 178 173 171 172 174 175 178 182 182 178 180 184 185 189 193 193 191 190 191 193 194 195 197 198 200 203 204 205 206 208 208 212 217 216 214 212 211 211 210 208 209 210 210 210 209 207 207 207 206
356 356 356 358 0 3 6 5 5 3 2 3 2 360 357 355 355 355 356 358 358 357 357 358 358 352 346 347 344 161 161 168 174 171 168 170 168 167 175 177 172 169 171 172 173 175 178 181 179 179 184 187 190 191 190 191 191 192 193 194 195 196 195 198 202 204 204 207 208 209 213 217 214 214 215 214 213 211 208 208 209 209 208 206 206 206 205 205
357 357 356 358 1 4 4 3 3 3 2 2 2 358 354 354 357 360 0 2 3 4 5 6 7 7 11 34 97 141 155 162 166 165 160 162 166 164 169 174 172 170 171 171 172 173 176 179 178 180 185 187 187 188 189 189 189 193 196 195 196 197 197 199 201 200 201 204 205 207 211 211 208 211 214 213 213 211 208 208 207 206 205 204 204 204 202 203
356 356 356 358 360 1 2 1 2 3 2 360 359 355 353 357 3 4 5 6 6 11 15 17 20 24 37 71 108 129 145 154 156 158 156 155 164 167 167 170 170 170 172 171 171 172 175 179 176 175 181 184 184 185 188 188 188 194 197 197 197 199 200 201 202 200 202 203 202 204 209 209 205 208 211 209 206 205 205 206 204 202 203 202 201 200 200 202
355 354 356 358 357 358 2 3 0 360 360 359 358 356 357 2 5 4 6 10 10 13 18 24 30 38 51 78 105 122 133 141 145 154 160 155 156 162 165 168 169 171 172 171 171 173 175 179 176 172 175 180 181 181 186 190 192 195 196 196 198 198 198 200 202 203 205 206 203 204 211 210 203 203 207 204 201 201 201 201 199 199 199 198 197 198 199 201
355 356 357 358 357 356 0 4 1 357 357 359 360 360 1 5 7 5 7 11 14 16 18 25 34 41 52 78 103 118 125 131 135 142 151 153 151 155 162 167 170 171 172 172 171 172 174 177 178 175 176 180 183 184 187 190 192 194 194 194 196 197 197 199 201 203 206 206 203 205 213 214 204 199 201 200 199 200 200 197 196 196 195 194 195 198 200 200
357 359 358 358 359 357 357 1 2 358 357 0 3 4 5 5 6 8 8 9 14 18 22 28 36 41 54 79 101 112 117 122 129 134 142 151 154 156 160 165 169 173 176 175 171 169 174 178 179 180 181 184 186 187 188 187 189 192 192 192 195 198 198 199 202 203 204 204 205 208 214 223 220 208 200 200 199 200 199 196 194 194 192 191 194 198 200 200
358 359 359 359 359 358 357 2 5 1 357 360 4 6 5 2 3 11 15 14 16 20 25 30 36 45 62 80 93 102 108 116 126 129 133 148 158 163 165 164 168 175 178 175 168 167 174 179 179 180 184 188 189 189 189 190 191 192 192 192 194 196 197 200 204 204 202 204 210 209 208 219 225 215 203 202 201 200 200 197 194 193 191 191 194 196 196 196
358 358 359 360 359 358 360 1 2 358 354 357 4 6 3 2 4 9 14 18 21 22 25 28 31 40 63 82 86 89 96 107 118 115 113 138 155 162 163 163 168 176 177 172 166 166 172 177 179 182 188 193 195 193 191 192 193 192 192 194 195 196 198 201 204 205 204 208 212 208 206 215 222 219 211 205 200 199 200 198 194 192 190 191 192 192 192 192
357 357 357 359 357 354 354 353 353 355 355 358 4 6 3 2 4 6 9 14 16 19 24 26 28 37 57 79 89 89 91 101 108 105 109 130 148 155 158 161 167 174 174 169 165 166 171 174 177 185 195 197 195 192 190 190 192 192 193 194 194 196 199 201 204 204 205 211 212 208 213 220 217 216 215 206 197 195 197 197 194 191 190 191 191 191 191 190
356 355 355 356 354 350 349 351 354 358 360 0 3 5 3 2 3 4 4 4 7 16 29 30 32 44 49 61 92 109 115 119 117 109 117 131 142 149 155 161 165 168 170 168 165 164 169 173 175 184 196 192 185 185 187 188 189 191 193 193 193 195 198 202 204 203 205 211 209 207 217 221 210 204 208 202 194 193 195 196 195 193 192 190 190 190 190 189
355 353 353 353 353 352 353 355 359 1 4 6 4 2 2 1 1 1 3 5 5 9 19 23 29 40 41 40 94 169 172 155 149 138 134 143 149 151 155 162 165 165 166 167 164 163 168 175 177 184 194 188 179 180 182 183 185 191 194 194 193 195 198 201 203 202 204 207 205 207 216 216 205 199 202 201 197 195 195 197 196 195 194 191 190 191 191 191
354 352 352 353 353 354 354 356 358 2 7 8 4 360 358 356 357 1 8 17 16 9 11 21 30 35 30 24 110 177 174 168 175 175 157 162 166 162 160 164 165 164 164 163 161 159 166 176 180 183 187 183 178 177 175 175 182 193 197 194 192 195 197 198 201 203 203 202 203 206 211 210 204 202 200 200 200 198 197 197 197 195 193 192 192 191 192 195